{"data":{"norad_id":55741,"epoch":"2026-05-25T04:08:09.064032Z","epoch_age_seconds":50239,"freshness":"FRESH","line1":"1 55741U 23028A   26145.17232713  .00000224  00000+0  26552-4 0  9992","line2":"2 55741  70.0009  51.7338 0002799 269.7991  90.2848 14.98333767177688","mean_motion":14.98333767,"eccentricity":0.0002799,"inclination_deg":70.0009,"raan_deg":51.7338,"arg_perigee_deg":269.7991,"mean_anomaly_deg":90.2848,"bstar":2.6552e-5,"rev_number":17768,"period_min":96.10675750058,"perigee_km":570.09888610247,"apogee_km":573.98959756165,"semimajor_km":6950.1812418321,"source":"CELESTRAK","updated_at":"2026-05-25T13:38:17.877808Z"}}